INTELSAT 32E (IS-32E)

Last updated on Thu Nov 21 2024 00:02:43 GMT+0000 (Coordinated Universal Time)

1 41945U 17007B 24325.30952237 -.00000267 00000+0 00000+0 0 9999 2 41945 0.0137 357.6137 0000326 166.6375 323.8220 1.00269633 28474
UTC large
Height (km)
Speed (km/s)
/
Latitude / Longitude
Inclination (degrees)
Orbital Period (minutes)
Azimuth
Elevation
Range (km)
Doppler Factor

Next 0 passes for location: London (51.5072 / 0.1276)

Sorry there are no passes over London.